KDVNKDEH

Guest
Details From KDVN - Davenport Muni
To KDEH - Decorah Muni
Flight Number -
Tags Generated
Created
Modified
Stats Distance 113 nm / 209 km
Max Altitude 0 ft / 0 m
Waypoints 2
Social Downloads 1
Likes 0
Share VATSIM

Download

Looking for another format? Having issues loading an existing format? Contact us
Advertisement - Login to hide

Notes

Generated

Route

KDVN KDEH

ID Type Via Altitude Latitude Longitude Leg Dist Tot Dist Heading (true) Name
O KDVN APT - 0 ft / 0 m 41.60746˚ -90.59197˚ - 0 nm - DAVENPORT MUNI
O KDEH APT - 0 ft / 0 m 43.27780˚ -91.74620˚ 112 nm 112 nm 333° / 333° -

Altitude Profile

Advertisement - Login to hide

KDVN

Details ICAO KDVN
Name DAVENPORT MUNI
Region United States
Timezone America/Chicago (UTC-5.0)
Stats Elevation 753 ft / 230 m (AMSL)
Location 41.610544° -90.588329°
Runways 2
Magnetic Variation 1.593° W

METAR

KDVN 242352Z AUTO 18010KT 10SM CLR 31/14 A3001 RMK AO2 SLP154 T03060139 10317 20289 56019

Decode

TAF

Not found

Departure Runways

ID Width Length Bearing (true) Bearing (mag) Surface Threshold Offset Overrun Length
03 100 ft / 30 m 4,003 ft / 1,220 m 29.48° 31.07° Concrete 0 ft / 0 m 0 ft / 0 m
15 100 ft / 30 m 5,504 ft / 1,678 m 149.66° 151.25° Concrete 0 ft / 0 m 0 ft / 0 m
21 100 ft / 30 m 4,003 ft / 1,220 m 209.49° 211.08° Concrete 0 ft / 0 m 0 ft / 0 m
33 100 ft / 30 m 5,504 ft / 1,678 m 329.66° 331.25° Concrete 0 ft / 0 m 0 ft / 0 m

KDEH

Details ICAO KDEH
Name DECORAH MUNI
Region United States
Timezone America/Chicago (UTC-5.0)
Stats Elevation 1,157 ft / 353 m (AMSL)
Location 43.275509° -91.739373°
Runways 1
Magnetic Variation 0.870° W

METAR

KDEH 250015Z AUTO 19007G14KT 10SM CLR 29/17 A2995 RMK AO2

Decode

TAF

Not found

Destination Runways

ID Width Length Bearing (true) Bearing (mag) Surface Threshold Offset Overrun Length
11 75 ft / 23 m 3,994 ft / 1,217 m 114.74° 115.61° Concrete 0 ft / 0 m 0 ft / 0 m
29 75 ft / 23 m 3,994 ft / 1,217 m 294.75° 295.62° Concrete 0 ft / 0 m 0 ft / 0 m